[[{"header":{"parameterUnit":"m.s-1","parameterCategory":1,"la1":30.2991,"la2":30.254,"lo1":-89.0895,"lo2":-89.0444,"dy":0.0017,"dx":0.0017,"nx":28,"ny":28,"refTime":"2025-07-13T03:00:00:Z","depth":0,"parameterNumber":2,"parameterNumberName":"U-component_of_WINDS"},"data":[0,0,0,0,0,0,0,0,0,0,0,0,0,0,0,0,0,0,0,0,0,0,0,0,0,0,0,0,0,0,0,0,0,0,0,0,0,0,0,0,0,0,0,0,0,0,0,0,0,0,0,0,0,0,0,0,0,0,2.7144,2.7145,0,2.7215,2.7216,2.7216,2.72,2.7198,2.7197,2.7196,2.7266,2.7269,2.7273,0,0,0,0,0,0,0,0,0,0,0,0,0,2.699,2.6993,2.7144,2.7145,2.7146,2.7215,2.7216,2.7217,2.72,2.7198,2.7197,2.7195,2.7265,2.7269,2.7273,0,0,0,0,0,0,0,0,0,0,0,0,0,2.7059,2.6994,2.7144,2.7146,2.7147,2.7215,2.7216,2.7217,2.72,2.7198,2.7196,2.7194,2.7264,2.7269,2.7273,2.7343,0,0,2.7288,2.729,0,0,0,0,0,0,0,0,2.7055,2.7064,2.7144,2.7146,2.7147,2.7196,2.7187,2.7259,2.7201,2.718,2.7196,2.7193,2.7245,2.7251,2.7269,2.7347,2.735,2.7288,2.7291,2.7293,2.7294,0,0,0,0,0,0,0,2.705,2.7061,2.7172,2.7146,2.7147,2.7142,2.7149,2.7201,2.7223,2.7181,2.718,2.7189,2.7245,2.7264,2.727,2.7351,2.7288,2.7292,2.7295,2.7297,2.7486,2.7488,0,0,0,0,0,0,2.7045,2.7057,2.717,2.7174,2.7095,2.7146,2.7155,2.7182,2.7222,2.7226,2.7191,2.7188,2.7257,2.7265,2.7272,2.7354,2.7293,2.7297,2.73,2.7484,2.7486,2.7489,0,0,0,0,0,0,2.7041,2.7055,2.7167,2.7115,2.7129,2.7151,2.7182,2.7185,2.7204,2.7229,2.7233,2.7207,2.7256,2.7266,2.7325,2.7356,2.73,2.7304,2.7481,2.7484,2.7487,2.752,0,0,0,0,0,0,2.7037,2.7054,2.7082,2.7116,2.7132,2.7219,2.7185,2.7188,2.7213,2.721,2.7245,2.7249,2.7255,2.7318,2.733,2.7362,2.7308,2.7478,2.7483,2.7486,2.7516,2.7524,2.753,0,0,0,0,0,2.7032,2.7088,2.7083,2.7097,2.7167,2.7221,2.723,2.7237,2.7215,2.7242,2.7258,2.7248,2.7352,2.7324,2.7337,2.7371,2.7476,2.7481,2.7486,2.7513,2.7522,2.753,0,0,0,0,0,0,2.7057,2.7093,2.7088,2.7157,2.7186,2.7218,2.7253,2.7247,2.7282,2.7278,2.7284,2.7292,2.7352,2.7368,2.7337,2.7439,2.7411,2.7418,2.7426,2.7436,2.7443,2.7437,2.7312,0,0,0,0,0,2.7071,2.7113,2.7141,2.72,2.7215,2.7232,2.7255,2.7257,2.7287,2.73,2.732,2.7348,2.7387,2.7413,2.745,2.7519,2.7524,2.7548,2.7556,2.7561,2.7567,2.7601,2.7611,2.7505,2.7505,2.7505,0,0,2.7099,2.7124,2.715,2.7206,2.7228,2.727,2.7242,2.7288,2.7318,2.7306,2.7363,2.7379,2.7411,2.7474,2.7503,2.7489,2.7598,2.7568,2.7572,2.7575,2.7608,2.7618,2.7626,2.7508,2.7507,2.7507,0,0,2.7172,2.7197,2.7246,2.7269,2.7304,2.7314,2.7326,2.7359,2.7369,2.7426,2.7417,2.7453,2.752,2.7543,2.7563,2.7642,2.7632,2.7654,2.7691,2.7724,2.7732,2.774,2.7765,2.7774,2.766,2.766,2.766,0,2.7203,2.7266,2.7273,2.7319,2.7342,2.7333,2.7382,2.7404,2.7449,2.7465,2.7449,2.7532,2.7553,2.762,2.7639,2.7657,2.7669,2.7649,2.7731,2.7738,2.7745,2.7769,2.7779,2.7662,2.7662,2.7662,2.7662,0,2.7301,2.7345,2.7381,2.7424,2.7451,2.7499,2.7511,2.7538,2.7537,2.7548,2.7605,2.763,2.7671,2.7687,2.7688,2.7754,2.7743,2.773,2.77,2.7758,2.778,2.779,2.7665,2.7665,2.7664,2.7663,0,0,2.7392,2.7437,2.7449,2.7467,2.7504,2.7537,2.7583,2.7623,2.7645,2.7676,2.7712,2.7769,2.7755,2.7778,2.7781,2.781,2.7867,2.7792,2.7793,2.7803,2.7938,2.7946,2.7957,2.7862,2.7864,2.7865,2.7934,0,2.7466,2.7547,2.7553,2.7626,2.7664,2.7656,2.7695,2.7721,2.7733,2.7766,2.7779,2.7817,2.7798,2.7811,2.784,2.7854,2.7894,2.785,2.7894,2.7896,2.7884,2.7969,2.7979,2.8043,2.7943,2.7945,2.7946,0,2.7563,2.7596,2.7672,2.7701,2.7717,2.7753,2.7788,2.7821,2.7849,2.7855,2.788,2.7878,2.7923,2.7893,2.7954,2.7923,2.7942,2.7951,2.7954,2.7956,2.7923,2.7972,2.8064,2.8072,2.796,2.7959,2.7958,0,2.7618,2.7682,2.7735,2.7751,2.7786,2.7811,2.7826,2.7853,2.7875,2.7906,2.792,2.7957,2.7976,2.8003,2.8009,2.7988,2.8069,2.8041,2.8073,2.8073,2.8089,2.8087,2.8182,2.8105,2.8105,2.8105,2.8104,0,2.7698,2.7745,2.7759,2.7792,2.7842,2.7848,2.7898,2.7912,2.7935,2.7968,2.7964,2.7995,2.8004,2.8036,2.8042,2.8089,2.8099,2.8103,2.8103,2.8102,2.8101,2.8113,2.8107,2.8107,2.8107,2.8106,2.8106,0,2.7768,2.778,2.7836,2.7865,2.7873,2.7909,2.7932,2.7962,2.7973,2.8015,2.8025,2.8041,2.8079,2.8089,2.8134,2.8138,2.8193,2.8191,2.8183,2.8182,2.8213,2.8209,2.8317,2.833,2.8246,2.8247,2.8248,0,2.7817,2.7852,2.7884,2.7906,2.7923,2.7959,2.7982,2.7988,2.8012,2.8045,2.8071,2.8108,2.8137,2.8198,2.8213,2.8246,2.8243,2.8279,2.8248,2.8245,2.824,2.8237,2.8239,2.8284,2.8285,2.8285,2.8286,0,2.7903,2.7906,2.7939,2.7974,2.8001,2.8029,2.8055,2.8074,2.8084,2.811,2.8148,2.8171,2.8217,2.8253,2.8286,2.8301,2.8294,2.8296,2.8304,2.8302,2.8295,2.8296,2.8196,2.8293,2.8292,2.8292,2.8291,2.8291,2.7962,2.7991,2.8017,2.8054,2.8074,2.8098,2.8127,2.8141,2.8173,2.821,2.8212,2.8253,2.8278,2.8322,2.8339,2.8369,2.8358,2.8372,2.8375,2.8377,2.8379,2.8292,2.8376,2.8376,2.8376,2.8375,2.8375,0,2.8044,2.806,2.8094,2.813,2.8158,2.815,2.8178,2.8202,2.8238,2.8262,2.8291,2.8333,2.8367,2.8385,2.8418,2.8439,2.8437,2.8448,2.8445,2.8448,2.8388,2.8376,2.8449,2.8449,2.8449,2.8449,2.8449,2.8449,2.809,2.8139,2.8145,2.8203,2.8219,2.8258,2.8275,2.8296,2.8315,2.8362,2.8391,2.8402,2.8422,2.8457,2.8487,2.8491,2.8502,2.8514,2.8516,2.846,2.8452,2.8445,2.8433,2.8517,2.8517,2.8573,2.8573,2.8574]},{"header":{"parameterUnit":"m.s-1","parameterCategory":1,"la1":30.2991,"la2":30.254,"lo1":-89.0895,"lo2":-89.0444,"dy":0.0017,"dx":0.0017,"nx":28,"ny":28,"refTime":"2025-07-13T03:00:00:Z","depth":0,"parameterNumber":3,"parameterNumberName":"V-component_of_WINDS"},"data":[0,0,0,0,0,0,0,0,0,0,0,0,0,0,0,0,0,0,0,0,0,0,0,0,0,0,0,0,0,0,0,0,0,0,0,0,0,0,0,0,0,0,0,0,0,0,0,0,0,0,0,0,0,0,0,0,0,0,0.1721,0.1721,0,0.1679,0.1679,0.1678,0.1625,0.1625,0.1624,0.1623,0.1581,0.1581,0.158,0,0,0,0,0,0,0,0,0,0,0,0,0,0.1755,0.1755,0.1721,0.1721,0.172,0.1679,0.1679,0.1678,0.1626,0.1625,0.1623,0.1623,0.1581,0.1581,0.158,0,0,0,0,0,0,0,0,0,0,0,0,0,0.173,0.1755,0.1721,0.1689,0.1686,0.1679,0.1679,0.1678,0.1626,0.1624,0.1623,0.1622,0.1581,0.1581,0.158,0.1603,0,0,0.1579,0.1579,0,0,0,0,0,0,0,0,0.1731,0.1729,0.1694,0.1691,0.1687,0.1656,0.1675,0.1653,0.1626,0.1649,0.1623,0.1621,0.1607,0.1604,0.1599,0.1601,0.1599,0.1579,0.1578,0.1578,0.1578,0,0,0,0,0,0,0,0.1733,0.173,0.1705,0.1694,0.169,0.1676,0.1671,0.1671,0.1636,0.1646,0.1643,0.1638,0.1605,0.16,0.1598,0.1598,0.1579,0.1578,0.1578,0.1578,0.1614,0.1615,0,0,0,0,0,0,0.174,0.1732,0.1706,0.1703,0.1707,0.1677,0.1671,0.1668,0.1635,0.1629,0.1639,0.1636,0.1601,0.1599,0.1596,0.162,0.1578,0.1578,0.1577,0.1613,0.1615,0.1616,0,0,0,0,0,0,0.1741,0.1738,0.1708,0.1716,0.1712,0.1678,0.1674,0.1667,0.1662,0.163,0.1623,0.1641,0.16,0.1597,0.1601,0.1617,0.1577,0.1577,0.1612,0.1614,0.1615,0.1667,0,0,0,0,0,0,0.1742,0.1739,0.1747,0.1717,0.1711,0.1714,0.1675,0.1668,0.1661,0.1657,0.163,0.1624,0.1599,0.1602,0.1601,0.1616,0.1577,0.161,0.1612,0.1615,0.1664,0.1671,0.1676,0,0,0,0,0,0.1743,0.1764,0.1748,0.1745,0.1721,0.1715,0.1711,0.1682,0.1663,0.1671,0.165,0.1625,0.1616,0.1603,0.1601,0.1616,0.1609,0.1612,0.1614,0.1661,0.1669,0.1676,0,0,0,0,0,0,0.1797,0.1759,0.1741,0.1753,0.1737,0.1706,0.1715,0.1692,0.1682,0.1678,0.1642,0.1636,0.1645,0.1631,0.1617,0.1636,0.1608,0.1611,0.1645,0.1652,0.1658,0.1662,0.1576,0,0,0,0,0,0.181,0.1808,0.1775,0.1788,0.1781,0.175,0.1746,0.1724,0.1707,0.17,0.168,0.1664,0.1657,0.1654,0.1646,0.1661,0.1654,0.1671,0.1677,0.1682,0.1685,0.1691,0.1698,0.1625,0.1625,0.1625,0,0,0.1838,0.1817,0.1818,0.1799,0.1784,0.1782,0.1745,0.1745,0.1743,0.17,0.1703,0.1687,0.1667,0.1676,0.1679,0.1665,0.1703,0.1686,0.169,0.169,0.1694,0.1701,0.1707,0.1627,0.1627,0.1627,0,0,0.1887,0.1871,0.188,0.1865,0.1844,0.1822,0.1824,0.1796,0.1783,0.1785,0.1753,0.175,0.174,0.1726,0.1718,0.176,0.1736,0.1758,0.1791,0.1797,0.1803,0.1808,0.1822,0.1828,0.1761,0.1761,0.1761,0,0.1924,0.192,0.1887,0.1889,0.1881,0.1841,0.185,0.1838,0.1815,0.181,0.1794,0.1779,0.1763,0.1768,0.1778,0.1773,0.1774,0.1762,0.1805,0.1809,0.1813,0.1827,0.1832,0.1764,0.1764,0.1763,0.1763,0,0.1966,0.1963,0.1973,0.1951,0.1944,0.1949,0.1917,0.1914,0.1893,0.1873,0.1874,0.1853,0.184,0.1839,0.1819,0.1841,0.1833,0.1811,0.1783,0.1824,0.1836,0.1841,0.1768,0.1767,0.1766,0.1766,0,0,0.2049,0.2007,0.2011,0.2,0.1973,0.197,0.1973,0.1959,0.1957,0.1942,0.1943,0.1934,0.1914,0.1904,0.1882,0.1887,0.1921,0.1865,0.1864,0.1876,0.1943,0.196,0.1966,0.1905,0.1905,0.1906,0.1945,0,0.2092,0.2095,0.2065,0.2075,0.2072,0.2034,0.2036,0.2019,0.2,0.1994,0.1973,0.1967,0.1941,0.1935,0.1938,0.1916,0.1934,0.1913,0.1905,0.1905,0.1912,0.1972,0.199,0.2028,0.1949,0.195,0.1951,0,0.2144,0.2131,0.2141,0.2111,0.2109,0.2111,0.2096,0.2091,0.207,0.2056,0.2045,0.2019,0.2019,0.1992,0.1991,0.1977,0.1972,0.1961,0.1961,0.196,0.1931,0.1972,0.2039,0.2045,0.1958,0.1957,0.1957,0,0.2203,0.2188,0.2191,0.2183,0.2149,0.2152,0.2137,0.2115,0.2109,0.2095,0.209,0.2077,0.207,0.206,0.203,0.2014,0.2033,0.2003,0.202,0.2021,0.2027,0.2027,0.2093,0.2023,0.2023,0.2023,0.2023,0,0.2255,0.2262,0.2217,0.222,0.2227,0.2192,0.2199,0.2181,0.2162,0.216,0.2126,0.2125,0.2086,0.208,0.2057,0.2059,0.2056,0.2045,0.2038,0.2048,0.2049,0.2044,0.2041,0.2025,0.2024,0.2024,0.2024,0,0.2322,0.2292,0.2294,0.2261,0.2252,0.2259,0.223,0.2231,0.2209,0.2207,0.2204,0.217,0.2161,0.2131,0.2115,0.2099,0.2108,0.2097,0.2116,0.2112,0.213,0.2129,0.2196,0.2203,0.2129,0.2129,0.213,0,0.2357,0.2362,0.2329,0.2325,0.2312,0.2306,0.2298,0.2264,0.2258,0.2234,0.2237,0.2225,0.2214,0.2201,0.2175,0.2162,0.215,0.2174,0.2148,0.2157,0.215,0.215,0.215,0.218,0.2181,0.2182,0.2183,0,0.2423,0.2407,0.2398,0.2383,0.2375,0.2362,0.2346,0.2345,0.2306,0.2301,0.2291,0.2282,0.2265,0.2253,0.2236,0.2221,0.2195,0.2191,0.2194,0.2204,0.2214,0.2208,0.2131,0.219,0.2189,0.2188,0.2188,0.2188,0.2474,0.2476,0.2453,0.2444,0.2428,0.2414,0.2413,0.239,0.2382,0.2365,0.2345,0.2337,0.2315,0.2289,0.2275,0.2269,0.2255,0.226,0.2261,0.2262,0.2267,0.2215,0.2265,0.2265,0.2265,0.2265,0.2265,0,0.2538,0.252,0.2512,0.2491,0.2483,0.2459,0.244,0.2436,0.2429,0.2411,0.24,0.2388,0.2376,0.2349,0.2334,0.2334,0.2322,0.2332,0.2331,0.2328,0.228,0.2279,0.2342,0.2342,0.2342,0.2342,0.2342,0.2342,0.257,0.2571,0.2553,0.2547,0.2529,0.2521,0.2513,0.2499,0.2484,0.2472,0.2462,0.2444,0.2422,0.2405,0.2393,0.2385,0.2381,0.2395,0.2383,0.2339,0.2332,0.2325,0.2323,0.2394,0.2394,0.2431,0.2431,0.2432]}]]